EW7419 Weather Reports


time (UTC)temp
C
wind
direction
speed
KPH
gust
KPH
rain 1hr
cm
rain 24hr
cm
rain mn
cm
humidity
%
barometer
mb
20260509000046 25 35 6.4 16.1 0.00 0.00 0.00 19 1016.3
20260508235527 25 25 3.2 16.1 0.00 0.00 0.00 20 1016.3
20260508235026 25 30 4.8 16.1 0.00 0.00 0.00 19 1016.3
20260508234546 25 44 3.2 11.3 0.00 0.00 0.00 21 1016.4
20260508234025 25 42 4.8 16.1 0.00 0.00 0.00 20 1016.3
20260508233524 25 300 4.8 16.1 0.00 0.00 0.00 20 1016.3
20260508233100 25 275 6.4 16.1 0.00 0.00 0.00 19 1016.3
20260508232524 25 293 3.2 14.5 0.00 0.00 0.00 20 1016.3
20260508232023 25 313 6.4 14.5 0.00 0.00 0.00 20 1016.3
20260508231546 25 29 4.8 14.5 0.00 0.00 0.00 20 1016.3
20260508231026 25 294 4.8 14.5 0.00 0.00 0.00 20 1016.4
20260508230525 25 11 4.8 19.3 0.00 0.00 0.00 21 1016.4
20260508230053 24 31 9.7 19.3 0.00 0.00 0.00 21 1016.4
20260508225523 25 12 6.4 19.3 0.00 0.00 0.00 20 1016.5
20260508225023 25 344 3.2 19.3 0.00 0.00 0.00 20 1016.7
20260508224543 25 26 6.4 19.3 0.00 0.00 0.00 21 1016.7
20260508224024 24 14 4.8 19.3 0.00 0.00 0.00 21 1016.8
20260508223525 24 287 8.0 22.5 0.00 0.00 0.00 21 1016.8
20260508223040 24 19 6.4 22.5 0.00 0.00 0.00 21 1016.7
20260508222524 25 5 8.0 22.5 0.00 0.00 0.00 20 1016.8
20260508222024 24 352 8.0 22.5 0.00 0.00 0.00 22 1016.8
20260508221545 24 11 6.4 22.5 0.00 0.00 0.00 21 1016.8
20260508221029 24 54 6.4 22.5 0.00 0.00 0.00 21 1017.1
20260508220525 24 42 8.0 19.3 0.00 0.00 0.00 21 1016.8
20260508220046 24 49 6.4 17.7 0.00 0.00 0.00 22 1017.0
20260508215524 24 13 4.8 24.1 0.00 0.00 0.00 22 1017.0
20260508215026 23 30 6.4 24.1 0.00 0.00 0.00 22 1017.2
20260508214543 23 40 9.7 24.1 0.00 0.00 0.00 22 1017.3
20260508214024 23 28 9.7 22.5 0.00 0.00 0.00 22 1017.3
20260508213524 23 34 8.0 22.5 0.00 0.00 0.00 22 1017.1
20260508213040 24 352 6.4 19.3 0.00 0.00 0.00 22 1017.2
20260508212524 23 352 6.4 27.4 0.00 0.00 0.00 22 1017.3
20260508212024 23 294 6.4 27.4 0.00 0.00 0.00 22 1017.2
20260508211541 23 346 11.3 27.4 0.00 0.00 0.00 22 1017.1
20260508211028 23 19 6.4 24.1 0.00 0.00 0.00 22 1017.5
20260508210524 23 5 9.7 24.1 0.00 0.00 0.00 22 1017.5
20260508210039 23 42 9.7 22.5 0.00 0.00 0.00 21 1017.4
20260508205524 23 90 4.8 22.5 0.00 0.00 0.00 23 1017.5
20260508205024 23 342 8.0 22.5 0.00 0.00 0.00 22 1017.6
20260508204550 23 360 6.4 22.5 0.00 0.00 0.00 23 1017.5
20260508204025 23 40 9.7 22.5 0.00 0.00 0.00 22 1017.6
20260508203525 23 325 6.4 25.7 0.00 0.00 0.00 23 1017.6
20260508203051 23 12 8.0 25.7 0.00 0.00 0.00 23 1017.7
20260508202524 23 360 12.9 25.7 0.00 0.00 0.00 22 1017.8
20260508202025 23 42 4.8 19.3 0.00 0.00 0.00 22 1017.7
20260508201543 23 309 6.4 22.5 0.00 0.00 0.00 23 1017.7
20260508201024 23 342 8.0 22.5 0.00 0.00 0.00 23 1017.8
20260508200524 23 17 6.4 22.5 0.00 0.00 0.00 22 1017.7
20260508200049 23 297 8.0 22.5 0.00 0.00 0.00 22 1017.7
20260508195528 23 60 6.4 22.5 0.00 0.00 0.00 24 1017.7
20260508195027 23 19 9.7 22.5 0.00 0.00 0.00 23 1017.7
20260508194547 23 350 8.0 19.3 0.00 0.00 0.00 24 1017.8
20260508194024 23 319 4.8 19.3 0.00 0.00 0.00 24 1018.0
20260508193524 22 9 8.0 20.9 0.00 0.00 0.00 24 1017.9
20260508193046 23 22 6.4 24.1 0.00 0.00 0.00 23 1017.9
20260508192524 23 360 6.4 24.1 0.00 0.00 0.00 24 1017.9
20260508192024 23 30 8.0 24.1 0.00 0.00 0.00 24 1017.8
20260508191548 22 360 6.4 24.1 0.00 0.00 0.00 25 1017.9
20260508191024 22 360 6.4 24.1 0.00 0.00 0.00 25 1018.0
20260508190524 23 21 6.4 24.1 0.00 0.00 0.00 24 1018.2
20260508190043 23 341 8.0 24.1 0.00 0.00 0.00 24 1018.3
20260508185523 22 352 9.7 24.1 0.00 0.00 0.00 24 1018.3
20260508185023 22 303 9.7 24.1 0.00 0.00 0.00 23 1018.2
20260508184549 23 23 9.7 22.5 0.00 0.00 0.00 23 1018.1
20260508184024 22 323 8.0 24.1 0.00 0.00 0.00 24 1018.2
20260508183525 23 302 6.4 25.7 0.00 0.00 0.00 25 1018.2
20260508183039 22 265 6.4 25.7 0.00 0.00 0.00 25 1018.2
20260508182524 23 352 11.3 25.7 0.00 0.00 0.00 24 1018.2
20260508182023 23 296 6.4 19.3 0.00 0.00 0.00 25 1018.2
20260508181545 23 300 8.0 22.5 0.00 0.00 0.00 25 1018.3
20260508181024 23 352 8.0 27.4 0.00 0.00 0.00 26 1018.4
20260508180523 23 22 9.7 27.4 0.00 0.00 0.00 25 1018.4
20260508180046 23 84 8.0 19.3 0.00 0.00 0.00 25 1018.4
20260508175524 23 266 8.0 19.3 0.00 0.00 0.00 25 1018.5
20260508175023 23 352 6.4 17.7 0.00 0.00 0.00 26 1018.4
20260508174548 22 17 3.2 25.7 0.00 0.00 0.00 27 1018.4
20260508174024 21 29 12.9 25.7 0.00 0.00 0.00 27 1018.5
20260508173524 21 65 11.3 22.5 0.00 0.00 0.00 29 1018.5
20260508173046 21 13 3.2 17.7 0.00 0.00 0.00 31 1018.7
20260508172525 21 46 8.0 17.7 0.00 0.00 0.00 30 1018.7
20260508172023 21 301 4.8 20.9 0.00 0.00 0.00 32 1018.6
20260508171540 21 5 8.0 20.9 0.00 0.00 0.00 31 1018.6
20260508171031 21 352 3.2 17.7 0.00 0.00 0.00 32 1018.6
20260508170523 21 13 4.8 19.3 0.00 0.00 0.00 33 1018.6
20260508170044 21 18 4.8 19.3 0.00 0.00 0.00 34 1018.7
20260508165524 21 33 4.8 22.5 0.00 0.00 0.00 33 1018.5
20260508165023 21 307 6.4 22.5 0.00 0.00 0.00 33 1018.5
20260508164546 21 21 6.4 16.1 0.00 0.00 0.00 32 1018.3
20260508164024 21 22 4.8 16.1 0.00 0.00 0.00 32 1018.4
20260508163521 21 41 9.7 16.1 0.00 0.00 0.00 32 1018.3
20260508163042 20 101 4.8 16.1 0.00 0.00 0.00 34 1018.1
20260508162524 20 38 1.6 16.1 0.00 0.00 0.00 34 1018.2
20260508162020 20 53 6.4 16.1 0.00 0.00 0.00 32 1018.2
20260508161547 20 26 3.2 12.9 0.00 0.00 0.00 34 1018.2
20260508161024 21 32 4.8 9.7 0.00 0.00 0.00 33 1018.1
20260508160523 20 352 1.6 9.7 0.00 0.00 0.00 33 1018.2
20260508160049 20 46 3.2 9.7 0.00 0.00 0.00 35 1018.1
20260508155532 20 32 3.2 9.7 0.00 0.00 0.00 34 1018.2
20260508155024 20 0 3.2 6.4 0.00 0.00 0.00 34 1018.2
20260508154550 20 0 0.0 6.4 0.00 0.00 0.00 36 1018.2
20260508154023 20 206 3.2 6.4 0.00 0.00 0.00 36 1018.2
20260508153524 19 0 0.0 6.4 0.00 0.00 0.00 37 1018.2
20260508153043 19 175 1.6 6.4 0.00 0.00 0.00 37 1018.3
20260508152523 19 175 1.6 4.8 0.00 0.00 0.00 38 1018.1
20260508152023 18 0 0.0 4.8 0.00 0.00 0.00 40 1018.1
20260508151545 18 0 0.0 4.8 0.00 0.00 0.00 42 1018.1
20260508151028 17 175 0.0 6.4 0.00 0.00 0.00 42 1018.0
20260508150524 17 175 1.6 6.4 0.00 0.00 0.00 43 1018.0
20260508150043 17 175 3.2 6.4 0.00 0.00 0.00 42 1017.9
20260508145524 17 175 3.2 6.4 0.00 0.00 0.00 42 1018.0
20260508145026 17 175 1.6 9.7 0.00 0.00 0.00 43 1018.0
20260508144541 17 177 1.6 9.7 0.00 0.00 0.00 40 1017.8
20260508144024 17 179 1.6 6.4 0.00 0.00 0.00 41 1017.8
20260508143524 17 180 3.2 6.4 0.00 0.00 0.00 41 1017.9
20260508143055 17 180 3.2 6.4 0.00 0.00 0.00 41 1017.7
20260508142528 17 254 1.6 4.8 0.00 0.00 0.00 40 1017.8
20260508142027 16 0 0.0 4.8 0.00 0.00 0.00 42 1017.6
20260508141545 16 0 0.0 4.8 0.00 0.00 0.00 43 1017.8
20260508141025 15 280 0.0 4.8 0.00 0.00 0.00 46 1017.8
20260508140523 15 280 1.6 4.8 0.00 0.00 0.00 46 1017.5
20260508140052 15 0 0.0 3.2 0.00 0.00 0.00 48 1017.6
20260508135523 14 0 0.0 0.0 0.00 0.00 0.00 50 1017.6
20260508135024 13 0 0.0 0.0 0.00 0.00 0.00 52 1017.6
20260508134547 12 0 0.0 0.0 0.00 0.00 0.00 55 1017.5
20260508134024 12 0 0.0 0.0 0.00 0.00 0.00 59 1017.5
20260508133524 11 0 0.0 0.0 0.00 0.00 0.00 60 1017.4
20260508133040 11 0 0.0 0.0 0.00 0.00 0.00 62 1017.3
20260508132527 10 0 0.0 0.0 0.00 0.00 0.00 64 1017.4
20260508132024 9 0 0.0 0.0 0.00 0.00 0.00 66 1017.3
20260508131540 8 0 0.0 0.0 0.00 0.00 0.00 67 1017.4
20260508131024 8 0 0.0 0.0 0.00 0.00 0.00 67 1017.3
20260508130523 8 0 0.0 0.0 0.00 0.00 0.00 66 1017.1
20260508130100 8 0 0.0 0.0 0.00 0.00 0.00 66 1017.1
20260508125526 8 0 0.0 0.0 0.00 0.00 0.00 65 1017.1
20260508125025 8 0 0.0 0.0 0.00 0.00 0.00 64 1017.1
20260508124934 8 0 0.0 0.0 0.00 0.00 0.00 64 1017.0
20260508100523 8 0 0.0 0.0 0.00 0.00 0.00 65 1016.1
20260508100044 8 0 0.0 0.0 0.00 0.00 0.00 65 1016.1
20260508095524 8 0 0.0 0.0 0.00 0.00 0.00 65 1016.1
20260508095027 8 0 0.0 0.0 0.00 0.00 0.00 65 1016.1
20260508094546 8 0 0.0 0.0 0.00 0.00 0.00 65 1016.1
20260508094024 9 0 0.0 0.0 0.00 0.00 0.00 65 1016.1
20260508093524 9 0 0.0 0.0 0.00 0.00 0.00 64 1016.1
20260508093053 10 0 0.0 0.0 0.00 0.00 0.00 62 1016.0
20260508092524 10 0 0.0 0.0 0.00 0.00 0.00 59 1016.0
20260508092024 10 0 0.0 0.0 0.00 0.00 0.00 58 1016.0
20260508091556 11 0 0.0 0.0 0.00 0.00 0.00 56 1015.9
20260508091024 11 0 0.0 0.0 0.00 0.00 0.00 53 1016.0
20260508090526 11 0 0.0 0.0 0.00 0.00 0.00 54 1015.9
20260508090058 11 0 0.0 1.6 0.00 0.00 0.00 52 1015.9
20260508085523 12 0 0.0 1.6 0.00 0.00 0.00 49 1015.9
20260508085028 12 0 0.0 1.6 0.00 0.00 0.00 48 1016.0
20260508084543 12 0 0.0 3.2 0.00 0.00 0.00 48 1016.1
20260508084026 12 284 0.0 4.8 0.00 0.00 0.00 47 1016.1
20260508083523 12 0 0.0 9.7 0.00 0.00 0.00 48 1016.0
20260508083044 12 284 1.6 9.7 0.00 0.00 0.00 49 1016.0
20260508082527 11 293 1.6 4.8 0.00 0.00 0.00 52 1016.0
20260508082024 11 0 0.0 3.2 0.00 0.00 0.00 55 1016.0
20260508081553 11 0 0.0 6.4 0.00 0.00 0.00 56 1016.0
20260508081025 11 293 0.0 6.4 0.00 0.00 0.00 55 1015.9
20260508080524 10 293 1.6 6.4 0.00 0.00 0.00 56 1016.0
20260508080050 10 0 0.0 1.6 0.00 0.00 0.00 58 1016.0
20260508075523 10 0 0.0 0.0 0.00 0.00 0.00 58 1016.0
20260508075024 10 0 0.0 3.2 0.00 0.00 0.00 58 1016.0
20260508074544 11 0 0.0 3.2 0.00 0.00 0.00 58 1016.0
20260508074024 11 293 0.0 3.2 0.00 0.00 0.00 57 1016.1
20260508073523 11 0 0.0 3.2 0.00 0.00 0.00 58 1016.1
20260508073047 11 293 0.0 3.2 0.00 0.00 0.00 56 1016.1
20260508072523 11 0 0.0 3.2 0.00 0.00 0.00 57 1016.0
20260508072024 11 0 0.0 3.2 0.00 0.00 0.00 57 1016.1
20260508071555 11 0 0.0 3.2 0.00 0.00 0.00 57 1016.0
20260508071024 11 293 0.0 1.6 0.00 0.00 0.00 55 1016.1
20260508070527 12 0 0.0 1.6 0.00 0.00 0.00 52 1016.2
20260508070052 12 0 0.0 1.6 0.00 0.00 0.00 51 1016.1
20260508065527 12 0 0.0 1.6 0.00 0.00 0.00 50 1016.1
20260508065025 13 0 0.0 0.0 0.00 0.00 0.00 48 1016.0
20260508064539 13 0 0.0 1.6 0.00 0.00 0.00 47 1016.0
20260508064024 13 0 0.0 11.3 0.00 0.00 0.00 45 1015.7
20260508063524 13 0 0.0 11.3 0.00 0.00 0.00 46 1015.6
20260508063046 12 293 3.2 8.0 0.00 0.00 0.00 49 1015.8
20260508062527 12 0 0.0 3.2 0.00 0.00 0.00 52 1015.7
20260508062025 12 215 0.0 3.2 0.00 0.00 0.00 50 1015.7
20260508061546 12 215 0.0 3.2 0.00 0.00 0.00 51 1015.6
20260508061024 13 215 0.0 3.2 0.00 0.00 0.00 49 1015.7
20260508060525 13 0 0.0 3.2 0.00 0.00 0.00 49 1015.7
20260508060045 13 0 0.0 1.6 0.00 0.00 0.00 48 1015.7
20260508055523 13 0 0.0 3.2 0.00 0.00 0.00 49 1015.6
20260508055024 13 0 0.0 3.2 0.00 0.00 0.00 48 1015.5
20260508054550 13 0 0.0 3.2 0.00 0.00 0.00 47 1015.4
20260508054024 13 0 0.0 1.6 0.00 0.00 0.00 46 1015.5
20260508053530 14 0 0.0 4.8 0.00 0.00 0.00 47 1015.6
20260508053044 14 0 0.0 4.8 0.00 0.00 0.00 46 1015.5
20260508052525 14 0 1.6 4.8 0.00 0.00 0.00 46 1015.5
20260508052023 13 217 0.0 4.8 0.00 0.00 0.00 48 1015.5
20260508051542 14 0 0.0 4.8 0.00 0.00 0.00 47 1015.4
20260508051024 14 0 1.6 8.0 0.00 0.00 0.00 46 1015.4
20260508050523 14 217 1.6 8.0 0.00 0.00 0.00 46 1015.3
20260508050046 14 216 3.2 8.0 0.00 0.00 0.00 46 1015.4
20260508045523 13 186 1.6 4.8 0.00 0.00 0.00 47 1015.4
20260508045023 13 186 0.0 1.6 0.00 0.00 0.00 49 1015.4
20260508044548 13 0 0.0 1.6 0.00 0.00 0.00 48 1015.4
20260508044022 14 0 0.0 1.6 0.00 0.00 0.00 48 1015.3
20260508043524 14 0 0.0 1.6 0.00 0.00 0.00 47 1015.4
20260508043045 14 0 0.0 3.2 0.00 0.00 0.00 47 1015.4
20260508042523 14 0 0.0 3.2 0.00 0.00 0.00 46 1015.5
20260508042024 15 0 0.0 3.2 0.00 0.00 0.00 46 1015.4
20260508041541 15 0 0.0 3.2 0.00 0.00 0.00 46 1015.5
20260508041022 15 186 0.0 4.8 0.00 0.00 0.00 46 1015.4
20260508040522 15 0 0.0 4.8 0.00 0.00 0.00 47 1015.4
20260508040038 15 186 0.0 4.8 0.00 0.00 0.00 46 1015.4
20260508035524 15 186 1.6 4.8 0.00 0.00 0.00 46 1015.4
20260508035024 15 0 0.0 6.4 0.00 0.00 0.00 45 1015.3
20260508034544 15 186 0.0 6.4 0.00 0.00 0.00 44 1015.2
20260508034024 15 176 1.6 4.8 0.00 0.00 0.00 43 1015.2
20260508033523 15 148 0.0 3.2 0.00 0.00 0.00 43 1015.3
20260508033106 15 0 0.0 1.6 0.00 0.00 0.00 43 1015.2
20260508032524 16 0 0.0 3.2 0.00 0.00 0.00 42 1015.2
20260508032025 16 0 0.0 3.2 0.00 0.00 0.00 42 1015.2
20260508031541 16 148 1.6 3.2 0.00 0.00 0.00 40 1015.1
20260508031024 16 148 1.6 4.8 0.00 0.00 0.00 40 1015.1
20260508030523 16 0 1.6 4.8 0.00 0.00 0.00 42 1015.0
20260508030042 17 0 0.0 3.2 0.00 0.00 0.00 38 1014.9
20260508025525 18 0 0.0 3.2 0.00 0.00 0.00 37 1014.9
20260508025022 18 0 0.0 3.2 0.00 0.00 0.00 34 1014.9
20260508024608 19 0 0.0 0.0 0.00 0.00 0.00 34 1015.1
20260508024024 20 0 0.0 0.0 0.00 0.00 0.00 34 1015.0
20260508023525 20 0 0.0 0.0 0.00 0.00 0.00 32 1014.7
20260508023045 20 0 0.0 0.0 0.00 0.00 0.00 31 1014.6
20260508022523 21 0 0.0 0.0 0.00 0.00 0.00 29 1014.7
20260508022024 21 0 0.0 0.0 0.00 0.00 0.00 27 1014.6
20260508021544 22 0 0.0 0.0 0.00 0.00 0.00 27 1014.7
20260508021024 22 0 0.0 0.0 0.00 0.00 0.00 27 1014.7
20260508020525 22 0 0.0 1.6 0.00 0.00 0.00 27 1014.7
20260508015524 22 0 0.0 8.0 0.00 0.00 0.00 26 1014.7
20260508015024 22 148 1.6 8.0 0.00 0.00 0.00 26 1014.6
20260508014551 22 148 3.2 8.0 0.00 0.00 0.00 25 1014.6
20260508014025 22 128 1.6 12.9 0.00 0.00 0.00 25 1014.7
20260508013523 22 129 3.2 12.9 0.00 0.00 0.00 25 1014.6
20260508013040 23 84 4.8 12.9 0.00 0.00 0.00 25 1014.6
20260508012527 23 0 1.6 4.8 0.00 0.00 0.00 25 1014.6
20260508012022 23 91 0.0 6.4 0.00 0.00 0.00 24 1014.7
20260508011545 23 0 1.6 6.4 0.00 0.00 0.00 24 1014.8
20260508011023 23 90 1.6 6.4 0.00 0.00 0.00 24 1014.7
20260508010525 23 90 1.6 6.4 0.00 0.00 0.00 25 1014.7
20260508010043 23 92 1.6 8.0 0.00 0.00 0.00 24 1014.9
20260508005524 23 97 1.6 8.0 0.00 0.00 0.00 25 1014.7
20260508005027 22 100 3.2 6.4 0.00 0.00 0.00 25 1014.9
20260508004547 22 66 1.6 4.8 0.00 0.00 0.00 26 1014.9
20260508004026 22 0 0.0 4.8 0.00 0.00 0.00 26 1015.0
20260508003524 22 0 0.0 4.8 0.00 0.00 0.00 27 1015.2
20260508003045 22 64 0.0 6.4 0.00 0.00 0.00 25 1015.2
20260508002524 22 66 1.6 6.4 0.00 0.00 0.00 25 1015.2
20260508002024 22 66 0.0 6.4 0.00 0.00 0.00 26 1015.1
20260508001551 22 0 0.0 12.9 0.00 0.00 0.00 24 1015.2
20260508001025 22 67 3.2 12.9 0.00 0.00 0.00 25 1015.2
20260508000527 22 63 4.8 12.9 0.00 0.00 0.00 25 1015.2